Knox, IN

9:11 PM CDT on July 20, 2017 (GMT -0500)
Starke County

Weather History for KOXI - April, 2013

Change the Weather History Date:

Thursday, April 4, 2013

  Actual Average (KRCR) Record (KRCR)
Temperature  
Mean Temperature 38 °F -  
Max Temperature 61 °F 53 °F 59 °F (2016)
Min Temperature 20 °F 33 °F 30 °F (2015)
Degree Days  
Heating Degree Days 26    
Moisture  
Dew Point 18 °F    
Average Humidity 49    
Maximum Humidity 89    
Minimum Humidity 20    
Precipitation  
Precipitation 0.00 in - - ()
Sea Level Pressure  
Sea Level Pressure 30.12 in    
Wind  
Wind Speed 3 mph (SW)    
Max Wind Speed 12 mph    
Max Gust Speed -    
Visibility 10 miles    
Events      
Averages and records for this station are not official NWS values.
T = Trace of Precipitation, MM = Missing Value Source: NWS Daily Summary

Daily Weather History Graph

Daily Weather History Graph

Search for Another Location

Airport or City:

Trip Planner

Search our weather history database for the weather conditions in past years. The results will help you decide how hot, cold, wet, or windy it might be!

Date:

Astronomy

Apr. 04, 2013 Rise Set
Actual Time 6:24 AM CDT 7:15 PM CDT
Civil Twilight 5:56 AM CDT 7:43 PM CDT
Nautical Twilight 5:23 AM CDT 8:16 PM CDT
Astronomical Twilight 4:48 AM CDT 8:51 PM CDT
Moon 2:54 AM CDT (4/4) 1:29 PM CDT (4/4)
Length of Visible Light 13h 47m
Length of Day
12h 50m
Waning Crescent, 33% of the Moon is Illuminated
Apr 4
Waning Crescent
Apr 10
New
Apr 18
First Quarter
Apr 25
Full
May 2
Last Quarter

Hourly Weather History & Observations

Time (CDT) Temp. Windchill Dew Point Humidity Pressure Visibility Wind Dir Wind Speed Gust Speed Precip Events Conditions
12:15 AM 26.4 °F - 18.3 °F 71% 30.33 in 10.0 mi Calm Calm - N/A   Clear
12:35 AM 25.0 °F - 18.5 °F 76% 30.33 in 10.0 mi Calm Calm - N/A   Clear
12:55 AM 24.3 °F - 19.4 °F 82% 30.33 in 10.0 mi Calm Calm - N/A   Clear
1:15 AM 23.5 °F - 18.9 °F 82% 30.32 in 10.0 mi Calm Calm - N/A   Clear
1:35 AM 23.7 °F - 18.7 °F 81% 30.32 in 10.0 mi Calm Calm - N/A   Clear
1:55 AM 23.4 °F - 18.9 °F 83% 30.31 in 10.0 mi Calm Calm - N/A   Clear
2:15 AM 22.8 °F - 18.9 °F 85% 30.30 in 10.0 mi Calm Calm - N/A   Clear
2:35 AM 21.9 °F - 18.3 °F 86% 30.29 in 10.0 mi Calm Calm - N/A   Clear
2:55 AM 21.4 °F - 17.8 °F 86% 30.28 in 10.0 mi Calm Calm - N/A   Clear
3:15 AM 21.9 °F 17.2 °F 18.1 °F 85% 30.27 in 10.0 mi East 3.5 mph - N/A   Clear
3:35 AM 21.9 °F - 17.8 °F 84% 30.27 in 10.0 mi Calm Calm - N/A   Clear
3:55 AM 20.8 °F - 17.8 °F 88% 30.26 in 10.0 mi Calm Calm - N/A   Clear
4:15 AM 20.7 °F - 18.0 °F 89% 30.26 in 10.0 mi Calm Calm - N/A   Clear
4:35 AM 21.6 °F - 18.3 °F 87% 30.25 in 10.0 mi Calm Calm - N/A   Clear
4:55 AM 22.1 °F - 18.0 °F 84% 30.24 in 10.0 mi Calm Calm - N/A   Clear
5:15 AM 21.7 °F - 17.8 °F 85% 30.24 in 10.0 mi Calm Calm - N/A   Clear
5:35 AM 20.3 °F 15.4 °F 17.2 °F 88% 30.23 in 10.0 mi ESE 3.5 mph - N/A   Clear
5:55 AM 20.7 °F 15.8 °F 17.8 °F 89% 30.22 in 10.0 mi ESE 3.5 mph - N/A   Clear
6:35 AM 24.3 °F 19.9 °F 17.8 °F 76% 30.23 in 10.0 mi SSE 3.5 mph - N/A   Clear
6:55 AM 26.4 °F 20.9 °F 17.4 °F 69% 30.22 in 10.0 mi SSE 4.6 mph - N/A   Clear
7:15 AM 27.5 °F 22.2 °F 17.6 °F 66% 30.22 in 10.0 mi SE 4.6 mph - N/A   Clear
7:35 AM 28.9 °F 22.8 °F 19.8 °F 69% 30.22 in 10.0 mi SSE 5.8 mph - N/A   Clear
7:55 AM 31.5 °F 25.8 °F 21.4 °F 66% 30.22 in 10.0 mi SSE 5.8 mph - N/A   Clear
8:15 AM 33.3 °F 26.4 °F 20.5 °F 59% 30.22 in 10.0 mi South 8.1 mph - N/A   Clear
8:35 AM 35.6 °F 29.2 °F 19.0 °F 51% 30.21 in 10.0 mi South 8.1 mph - N/A   Clear
8:55 AM 38.3 °F 31.4 °F 17.2 °F 43% 30.21 in 10.0 mi SSW 10.4 mph - N/A   Clear
9:15 AM 39.7 °F 33.2 °F 16.2 °F 38% 30.20 in 10.0 mi South 10.4 mph - N/A   Clear
9:35 AM 41.4 °F 35.2 °F 16.2 °F 36% 30.20 in 10.0 mi South 10.4 mph - N/A   Clear
9:55 AM 42.8 °F 38.0 °F 16.5 °F 35% 30.19 in 10.0 mi SSW 8.1 mph - N/A   Clear
10:15 AM 44.1 °F 38.6 °F 16.3 °F 33% 30.19 in 10.0 mi South 10.4 mph - N/A   Clear
10:35 AM 45.3 °F 42.3 °F 16.2 °F 31% 30.18 in 10.0 mi SSW 5.8 mph - N/A   Clear
10:55 AM 46.0 °F 43.1 °F 16.2 °F 30% 30.17 in 10.0 mi SW 5.8 mph - N/A   Clear
11:15 AM 46.9 °F - 16.3 °F 29% 30.16 in 10.0 mi WSW 4.6 mph - N/A   Clear
11:35 AM 47.5 °F - 15.8 °F 28% 30.15 in 10.0 mi WNW 4.6 mph - N/A   Clear
11:55 AM 48.0 °F - 15.6 °F 27% 30.14 in 10.0 mi SSW 4.6 mph - N/A   Clear
12:15 PM 49.3 °F - 16.9 °F 28% 30.13 in 10.0 mi WNW 9.2 mph - N/A   Clear
12:35 PM 49.8 °F - 16.5 °F 27% 30.11 in 10.0 mi WSW 4.6 mph - N/A   Clear
12:55 PM 50.5 °F - 16.0 °F 25% 30.10 in 10.0 mi NW 6.9 mph - N/A   Clear
1:15 PM 51.3 °F - 15.3 °F 24% 30.09 in 10.0 mi WSW 8.1 mph - N/A   Clear
1:35 PM 51.6 °F - 14.5 °F 23% 30.08 in 10.0 mi Calm Calm - N/A   Clear
1:55 PM 52.9 °F - 15.6 °F 23% 30.08 in 10.0 mi West 9.2 mph - N/A   Clear
2:15 PM 53.4 °F - 15.6 °F 22% 30.06 in 10.0 mi South 4.6 mph - N/A   Clear
2:35 PM 54.0 °F - 15.3 °F 22% 30.05 in 10.0 mi Calm Calm - N/A   Clear
3:15 PM 54.7 °F - 16.2 °F 22% 30.03 in 10.0 mi WNW 3.5 mph - N/A   Clear
3:35 PM 55.4 °F - 15.8 °F 21% 30.02 in 10.0 mi West 3.5 mph - N/A   Clear
3:55 PM 55.8 °F - 15.8 °F 21% 30.01 in 10.0 mi WSW 8.1 mph - N/A   Clear
4:15 PM 56.1 °F - 15.1 °F 20% 30.00 in 10.0 mi Calm Calm - N/A   Clear
4:35 PM 56.3 °F - 15.4 °F 20% 30.00 in 10.0 mi West 6.9 mph - N/A   Clear
4:55 PM 56.7 °F - 16.2 °F 20% 30.00 in 10.0 mi WSW 8.1 mph - N/A   Clear
5:15 PM 56.8 °F - 16.7 °F 21% 29.99 in 10.0 mi WSW 6.9 mph - N/A   Clear
5:35 PM 57.0 °F - 16.5 °F 20% 29.99 in 10.0 mi West 10.4 mph - N/A   Clear
5:55 PM 56.7 °F - 15.8 °F 20% 29.99 in 10.0 mi West 9.2 mph - N/A   Clear
6:15 PM 56.3 °F - 16.0 °F 21% 29.99 in 10.0 mi West 11.5 mph - N/A   Clear
6:35 PM 55.6 °F - 15.8 °F 21% 29.98 in 10.0 mi West 9.2 mph - N/A   Clear
6:55 PM 54.1 °F - 16.5 °F 23% 29.98 in 10.0 mi West 8.1 mph - N/A   Clear
7:15 PM 52.2 °F - 17.2 °F 25% 29.98 in 10.0 mi WSW 5.8 mph - N/A   Clear
7:35 PM 49.3 °F - 17.6 °F 28% 29.98 in 10.0 mi West 5.8 mph - N/A   Clear
7:55 PM 49.1 °F - 16.9 °F 28% 29.98 in 10.0 mi WSW 4.6 mph - N/A   Clear
8:15 PM 48.2 °F - 16.5 °F 28% 29.98 in 10.0 mi WSW 3.5 mph - N/A   Clear
8:35 PM 46.2 °F 45.0 °F 17.1 °F 31% 29.98 in 10.0 mi SW 3.5 mph - N/A   Clear
8:55 PM 42.3 °F 40.5 °F 19.4 °F 40% 29.98 in 10.0 mi SW 3.5 mph - N/A   Clear
9:15 PM 39.2 °F 37.0 °F 20.8 °F 48% 29.99 in 10.0 mi SW 3.5 mph - N/A   Scattered Clouds
9:35 PM 38.5 °F 35.0 °F 21.6 °F 51% 29.98 in 10.0 mi SW 4.6 mph - N/A   Scattered Clouds
9:55 PM 36.7 °F 32.9 °F 22.8 °F 57% 29.98 in 10.0 mi SW 4.6 mph - N/A   Scattered Clouds
10:15 PM 36.9 °F 33.1 °F 22.3 °F 56% 29.98 in 10.0 mi WSW 4.6 mph - N/A   Mostly Cloudy
10:35 PM 37.0 °F 32.4 °F 22.8 °F 56% 29.98 in 10.0 mi WSW 5.8 mph - N/A   Scattered Clouds
10:55 PM 37.2 °F 31.9 °F 22.8 °F 56% 29.97 in 10.0 mi WSW 6.9 mph - N/A   Scattered Clouds
11:15 PM 40.3 °F 36.3 °F 23.4 °F 51% 29.97 in 10.0 mi WSW 5.8 mph - N/A   Overcast
11:35 PM 41.5 °F 37.8 °F 24.6 °F 51% 29.97 in 10.0 mi SW 5.8 mph - N/A   Overcast
11:55 PM 41.2 °F 36.6 °F 26.4 °F 56% 29.97 in 10.0 mi SW 6.9 mph - N/A   Overcast